Regional Weather Roundup
Issued by NWS

Home | Current Version | Previous Version | Text Only | Print | Product List | Glossary Off
Versions: 1 2 3 4 5 6 7 8 9 10 11 12 13 14 15 16 17 18 19 20 21 22 23 24 25 26 27 28 29 30 31 32 33 34 35 36 37 38 39 40 41 42 43 44 45 46 47 48 49

000
ASUS43 KDMX 301307
RWRIA

WEATHER ROUNDUP FOR IOWA
NATIONAL WEATHER SERVICE DES MOINES IA
800 AM CDT SUN AUG 30 2015

NOTE: "FAIR" INDICATES FEW OR NO CLOUDS BELOW 12,000 FEET WITH NO
SIGNIFICANT WEATHER AND/OR OBSTRUCTIONS TO VISIBILITY.

* - THESE STATIONS ARE NOT NWS STATIONS...THUS NOT UNDER NWS
QUALITY CONTROL.  THEY ALSO DO NOT REPORT WEATHER SUCH
AS PRECIPITATION OR FOG.

IAZ001>003-012>014-020>022-031>034-043>046-301400-
   NORTHWEST IOWA

CITY           SKY/WX    TMP DP  RH WIND       PRES   REMARKS
CARROLL *      SUNNY     61  61 100 CALM      30.05R FOG
CHEROKEE *     CLOUDY    64  63  94 S10       30.03S FOG
DENISON *      FOG       63  63 100 S6        30.03R VSB 1/4
LE MARS *      CLOUDY    63  61  94 S12       30.03S FOG
ORANGE CITY *  CLOUDY    63  61  94 S9        30.03S
SHELDON *      CLOUDY    63  61  94 S10       30.02S FOG
SPENCER        CLOUDY    63  59  87 S10       30.03S
STORM LAKE *   CLOUDY    64  63  94 SW10      30.05R
$$

IAZ055>058-069>071-079>083-090>094-301400-
   SOUTHWEST IOWA

CITY           SKY/WX    TMP DP  RH WIND       PRES   REMARKS
ATLANTIC *     FOG       63  63 100 SE3       30.06R VSB 0
AUDUBON *      FOG       63  61  94 S6        30.06S VSB 0
CLARINDA *     FOG       63  63 100 CALM      30.07R VSB 0
COUNCIL BLFS * FOG       61  61 100 SW5       30.06R VSB 0
CRESTON *      FOG       63  63 100 SE5       30.07S VSB 1/4
HARLAN  *      FOG       64 N/A N/A S5        30.08S VSB 3/4
LAMONI         FOG       64  63  96 CALM      30.06R VSB<1/4
RED OAK *      FOG       61  61 100 CALM      30.06R VSB 0
SHENANDOAH *   FOG       59  59 100 CALM      30.07R VSB 0
$$

IAZ047>049-059>061-072>074-084-301400-
   CENTRAL IOWA

CITY           SKY/WX    TMP DP  RH WIND       PRES   REMARKS
AMES           CLOUDY    62  61  96 CALM      30.05S FOG
ANKENY *       FOG       59  59 100 CALM      30.06S VSB 3/4
CHARITON *     FOG       64  64 100 CALM      30.06S VSB 0
DES MOINES     FOG       63  61  93 CALM      30.05S VSB 1/2
GRINNELL*      FOG       64  63  94 E3        30.07S VSB<1/4
KNOXVILLE *    FOG       63  61  94 CALM      30.05S VSB 0
MARSHALLTOWN   CLOUDY    63  62  97 E3        30.06R
PELLA *        FOG       63  63 100 CALM      30.08R VSB<1/4
PERRY *        FOG       63  63 100 CALM      30.06S VSB 1/2
$$

IAZ004>006-015-016-023>025-035-036-301400-
   NORTH CENTRAL IOWA

CITY           SKY/WX    TMP DP  RH WIND       PRES   REMARKS
ALGONA *       CLOUDY    63  61  94 SW7       30.04S
CLARION *      CLOUDY    63  63 100 S5        30.05S
ESTHERVILLE    CLOUDY    60  59  96 SW10      30.03S
FORT DODGE *   CLOUDY    64  61  88 S3        30.06R
MASON CITY     CLOUDY    60  60 100 S3        30.07R
FOREST CITY *  CLOUDY    59  59 100 CALM      30.05R FOG
IOWA FALLS *   CLOUDY    63  63 100 CALM      30.07S FOG
$$

IAZ007>011-017>019-026>030-037>042-050>054-066-301400-
   NORTHEAST IOWA

CITY           SKY/WX    TMP DP  RH WIND       PRES   REMARKS
CEDAR RAPIDS   FOG       64  64 100 CALM      30.07R VSB 1
CHARLES CITY * FOG       61  61 100 S5        30.07S VSB 0
CLINTON *        N/A     61  59  94 CALM      30.10R VSB<1/4
DECORAH *      CLOUDY    61  61 100 S3        30.06S
DUBUQUE        PTSUNNY   61  59  93 CALM      30.09R
MONTICELLO *   FOG       59  59 100 CALM      30.08S VSB 1/4
OELWEIN *        N/A     63  63 100 SE5       30.08R FOG
WATERLOO       CLOUDY    63  62  97 S3        30.06R
$$

IAZ064-065-067-068-078-301400-
   EAST CENTRAL IOWA

CITY           SKY/WX    TMP DP  RH WIND       PRES   REMARKS
DAVENPORT      FOG       61  61 100 E5        30.07R VSB 1/4
IOWA CITY      CLOUDY    64  64 100 CALM      30.08S FOG
MT. PLEASANT * FOG       68  64  88 E5        30.07R VSB<1/4
MUSCATINE *    FOG       63  63 100 N3        30.07R VSB 0
QUAD CITIES    FOG       63  61  93 E7        30.07R VSB<1/4
$$

IAZ062-063-075>077-085>089-095>099-301400-
   SOUTHEAST IOWA

CITY           SKY/WX    TMP DP  RH WIND       PRES   REMARKS
BURLINGTON     FOG       66  66 100 E3        30.06R VSB<1/4
FAIRFIELD *    FOG       64  63  94 E5        30.06R VSB 0
FORT MADISON * FOG       66  66 100 E5        30.07R VSB 0
KEOKUK *       CLOUDY    68  68 100 CALM      30.05S FOG
OSKALOOSA *    FOG       64  63  94 CALM      30.07R VSB 1/4
CENTERVILLE *  FOG       64  64 100 CALM      30.08R VSB 1/4
OTTUMWA        FOG       65  65 100 E5        30.05R VSB<1/4
WASHINGTON *     N/A    N/A N/A N/A MISG        N/A
$$

ABBREVIATIONS USED IN REMARKS
   TC - TEMPERATURES IN CELSIUS
  WCI - WIND CHILL INDEX
   HX - HEAT INDEX
  VSB - VISIBILITY
$$




USA.gov is the U.S. government's official web portal to all federal, state and local government web resources and services.